Time,TemperatureF,DewpointF,PressureIn,WindDirection,WindDirectionDegrees,WindSpeedMPH,WindSpeedGustMPH,Humidity,HourlyPrecipIn,Conditions,Clouds,dailyrainin,SoftwareType,DateUTC
2013-06-06 00:03:00,62.0,61.0,29.91,South,174,4.0,-999.0,98,-99.99,,,-99.99,,2013-06-06 04:03:00,
2013-06-06 00:13:00,62.0,61.0,29.91,South,174,4.0,-999.0,98,-99.99,,,-99.99,,2013-06-06 04:13:00,
2013-06-06 00:23:00,62.0,61.0,29.91,South,174,4.0,-999.0,98,-99.99,,,-99.99,,2013-06-06 04:23:00,
2013-06-06 00:33:00,61.0,60.0,29.89,SE,137,3.0,-999.0,97,-99.99,,,-99.99,,2013-06-06 04:33:00,
2013-06-06 00:42:00,61.0,60.0,29.90,SE,125,4.0,-999.0,98,-99.99,,,-99.99,,2013-06-06 04:42:00,
2013-06-06 00:53:00,61.0,60.0,29.90,SE,125,4.0,-999.0,98,-99.99,,,-99.99,,2013-06-06 04:53:00,
2013-06-06 01:02:00,61.0,60.0,29.90,SE,125,4.0,-999.0,98,-99.99,,,-99.99,,2013-06-06 05:02:00,
2013-06-06 01:12:00,61.0,60.0,29.90,SE,125,4.0,-999.0,98,-99.99,,,-99.99,,2013-06-06 05:12:00,
2013-06-06 01:23:00,61.0,60.0,29.90,SE,125,4.0,-999.0,98,-99.99,,,-99.99,,2013-06-06 05:23:00,
2013-06-06 01:32:00,61.0,60.0,29.90,SE,141,3.0,-999.0,98,-99.99,,,-99.99,,2013-06-06 05:32:00,
2013-06-06 01:42:00,61.0,60.0,29.90,SE,141,3.0,-999.0,98,-99.99,,,-99.99,,2013-06-06 05:42:00,
2013-06-06 01:52:00,61.0,60.0,29.89,WSW,247,1.0,-999.0,98,-99.99,,,-99.99,,2013-06-06 05:52:00,
2013-06-06 02:02:00,61.0,60.0,29.89,WSW,247,1.0,-999.0,98,-99.99,,,-99.99,,2013-06-06 06:02:00,
2013-06-06 02:12:00,61.0,60.0,29.89,WSW,247,1.0,-999.0,98,-99.99,,,-99.99,,2013-06-06 06:12:00,
2013-06-06 02:22:00,61.0,60.0,29.89,WSW,247,1.0,-999.0,98,-99.99,,,-99.99,,2013-06-06 06:22:00,
2013-06-06 02:32:00,61.0,60.0,29.89,SSE,151,1.0,-999.0,98,-99.99,,,-99.99,,2013-06-06 06:32:00,
2013-06-06 02:42:00,61.0,60.0,29.89,SSE,151,1.0,-999.0,98,-99.99,,,-99.99,,2013-06-06 06:42:00,
2013-06-06 02:52:00,61.0,60.0,29.88,SSW,201,1.0,-999.0,98,-99.99,,,-99.99,,2013-06-06 06:52:00,
2013-06-06 03:02:00,61.0,60.0,29.88,SSW,201,1.0,-999.0,98,-99.99,,,-99.99,,2013-06-06 07:02:00,
2013-06-06 03:12:00,61.0,60.0,29.88,SSW,201,1.0,-999.0,98,-99.99,,,-99.99,,2013-06-06 07:12:00,
2013-06-06 03:22:00,61.0,60.0,29.88,SSW,201,1.0,-999.0,98,-99.99,,,-99.99,,2013-06-06 07:22:00,
2013-06-06 03:32:00,61.0,60.0,29.87,SE,137,1.0,-999.0,98,-99.99,,,-99.99,,2013-06-06 07:32:00,
2013-06-06 03:42:00,61.0,60.0,29.87,SE,137,1.0,-999.0,98,-99.99,,,-99.99,,2013-06-06 07:42:00,
2013-06-06 03:52:00,61.0,60.0,29.85,SSE,158,2.0,-999.0,98,-99.99,,,-99.99,,2013-06-06 07:52:00,
2013-06-06 04:02:00,61.0,60.0,29.85,SSE,158,2.0,-999.0,98,-99.99,,,-99.99,,2013-06-06 08:02:00,
2013-06-06 04:12:00,61.0,60.0,29.85,SSE,158,2.0,-999.0,98,-99.99,,,-99.99,,2013-06-06 08:12:00,
2013-06-06 04:22:00,61.0,60.0,29.85,SSE,158,2.0,-999.0,98,-99.99,,,-99.99,,2013-06-06 08:22:00,
2013-06-06 04:32:00,61.0,60.0,29.85,NE,45,1.0,-999.0,98,-99.99,,,-99.99,,2013-06-06 08:32:00,
2013-06-06 04:42:00,61.0,60.0,29.85,NE,45,1.0,-999.0,98,-99.99,,,-99.99,,2013-06-06 08:42:00,
2013-06-06 04:52:00,61.0,60.0,29.85,NE,45,1.0,-999.0,98,-99.99,,,-99.99,,2013-06-06 08:52:00,
2013-06-06 05:02:00,61.0,60.0,29.84,SSW,211,1.0,-999.0,98,-99.99,,,-99.99,,2013-06-06 09:02:00,
2013-06-06 05:12:00,61.0,60.0,29.84,SSW,211,1.0,-999.0,98,-99.99,,,-99.99,,2013-06-06 09:12:00,
2013-06-06 05:22:00,61.0,60.0,29.84,SSW,211,1.0,-999.0,98,-99.99,,,-99.99,,2013-06-06 09:22:00,
2013-06-06 05:33:00,61.0,60.0,29.84,ESE,115,3.0,-999.0,98,-99.99,,,-99.99,,2013-06-06 09:33:00,
2013-06-06 05:43:00,61.0,60.0,29.84,ESE,115,3.0,-999.0,98,-99.99,,,-99.99,,2013-06-06 09:43:00,
2013-06-06 05:53:00,61.0,60.0,29.84,ESE,115,3.0,-999.0,98,-99.99,,,-99.99,,2013-06-06 09:53:00,
2013-06-06 06:03:00,61.0,60.0,29.85,NNW,337,2.0,-999.0,98,-99.99,,,-99.99,,2013-06-06 10:03:00,
2013-06-06 06:12:00,61.0,60.0,29.85,NNW,337,2.0,-999.0,98,-99.99,,,-99.99,,2013-06-06 10:12:00,
2013-06-06 06:23:00,61.0,60.0,29.85,NNW,337,2.0,-999.0,98,-99.99,,,-99.99,,2013-06-06 10:23:00,
2013-06-06 06:33:00,61.0,60.0,29.85,SW,221,2.0,-999.0,98,-99.99,,,-99.99,,2013-06-06 10:33:00,
2013-06-06 06:42:00,61.0,60.0,29.85,SW,221,2.0,-999.0,98,-99.99,,,-99.99,,2013-06-06 10:42:00,
2013-06-06 06:53:00,61.0,60.0,29.85,ESE,118,0.0,-999.0,98,-99.99,,,-99.99,,2013-06-06 10:53:00,
2013-06-06 07:02:00,61.0,60.0,29.85,ESE,118,0.0,-999.0,98,-99.99,,,-99.99,,2013-06-06 11:02:00,
2013-06-06 07:12:00,61.0,60.0,29.85,ESE,118,0.0,-999.0,98,-99.99,,,-99.99,,2013-06-06 11:12:00,
2013-06-06 07:22:00,61.0,60.0,29.85,ESE,118,0.0,-999.0,98,-99.99,,,-99.99,,2013-06-06 11:22:00,
2013-06-06 07:32:00,61.0,60.0,29.85,SSE,151,0.0,-999.0,98,-99.99,,,-99.99,,2013-06-06 11:32:00,
2013-06-06 07:42:00,61.0,60.0,29.85,SSE,151,0.0,-999.0,98,-99.99,,,-99.99,,2013-06-06 11:42:00,
2013-06-06 07:52:00,61.0,60.0,29.85,East,87,0.0,-999.0,98,-99.99,,,-99.99,,2013-06-06 11:52:00,
2013-06-06 08:03:00,61.0,60.0,29.85,East,87,0.0,-999.0,98,-99.99,,,-99.99,,2013-06-06 12:03:00,
2013-06-06 08:13:00,61.0,60.0,29.85,East,87,0.0,-999.0,98,-99.99,,,-99.99,,2013-06-06 12:13:00,
2013-06-06 08:23:00,61.0,60.0,29.85,East,87,0.0,-999.0,98,-99.99,,,-99.99,,2013-06-06 12:23:00,
2013-06-06 08:33:00,61.0,61.0,29.85,ESE,120,0.0,-999.0,99,-99.99,,,-99.99,,2013-06-06 12:33:00,
2013-06-06 08:43:00,61.0,61.0,29.85,ESE,120,0.0,-999.0,99,-99.99,,,-99.99,,2013-06-06 12:43:00,
2013-06-06 08:53:00,61.0,61.0,29.85,ESE,120,0.0,-999.0,99,-99.99,,,-99.99,,2013-06-06 12:53:00,
2013-06-06 09:03:00,62.0,62.0,29.86,SE,141,0.0,-999.0,99,-99.99,,,-99.99,,2013-06-06 13:03:00,
2013-06-06 09:13:00,62.0,62.0,29.86,SE,141,0.0,-999.0,99,-99.99,,,-99.99,,2013-06-06 13:13:00,
2013-06-06 09:23:00,62.0,62.0,29.86,SE,141,0.0,-999.0,99,-99.99,,,-99.99,,2013-06-06 13:23:00,
2013-06-06 09:33:00,62.0,62.0,29.86,ESE,108,0.0,-999.0,99,-99.99,,,-99.99,,2013-06-06 13:33:00,
2013-06-06 09:43:00,62.0,62.0,29.86,ESE,108,0.0,-999.0,99,-99.99,,,-99.99,,2013-06-06 13:43:00,
2013-06-06 09:53:00,62.0,62.0,29.86,ESE,108,0.0,-999.0,99,-99.99,,,-99.99,,2013-06-06 13:53:00,
2013-06-06 10:03:00,63.0,63.0,29.86,East,90,0.0,-999.0,99,-99.99,,,-99.99,,2013-06-06 14:03:00,
2013-06-06 10:13:00,63.0,63.0,29.86,East,90,0.0,-999.0,99,-99.99,,,-99.99,,2013-06-06 14:13:00,
2013-06-06 10:23:00,63.0,63.0,29.86,East,90,0.0,-999.0,99,-99.99,,,-99.99,,2013-06-06 14:23:00,
2013-06-06 10:33:00,63.0,63.0,29.86,East,90,0.0,-999.0,99,-99.99,,,-99.99,,2013-06-06 14:33:00,
2013-06-06 10:53:00,63.0,63.0,29.87,East,101,0.0,-999.0,99,-99.99,,,-99.99,,2013-06-06 14:53:00,
2013-06-06 11:03:00,63.0,63.0,29.87,East,101,0.0,-999.0,99,-99.99,,,-99.99,,2013-06-06 15:03:00,
2013-06-06 11:13:00,63.0,63.0,29.87,East,101,0.0,-999.0,99,-99.99,,,-99.99,,2013-06-06 15:13:00,
2013-06-06 11:23:00,63.0,63.0,29.87,East,101,0.0,-999.0,99,-99.99,,,-99.99,,2013-06-06 15:23:00,
2013-06-06 11:33:00,64.0,64.0,29.88,West,278,0.0,-999.0,99,-99.99,,,-99.99,,2013-06-06 15:33:00,
2013-06-06 11:43:00,64.0,64.0,29.88,West,278,0.0,-999.0,99,-99.99,,,-99.99,,2013-06-06 15:43:00,
2013-06-06 11:53:00,64.0,64.0,29.88,West,278,0.0,-999.0,99,-99.99,,,-99.99,,2013-06-06 15:53:00,
2013-06-06 12:03:00,65.0,65.0,29.87,SSE,165,0.0,-999.0,100,-99.99,,,-99.99,,2013-06-06 16:03:00,
2013-06-06 12:13:00,65.0,65.0,29.87,SSE,165,0.0,-999.0,100,-99.99,,,-99.99,,2013-06-06 16:13:00,
2013-06-06 12:23:00,65.0,65.0,29.87,SSE,165,0.0,-999.0,100,-99.99,,,-99.99,,2013-06-06 16:23:00,
2013-06-06 12:33:00,65.0,65.0,29.87,SSE,152,0.0,-999.0,99,-99.99,,,-99.99,,2013-06-06 16:33:00,
2013-06-06 12:44:00,65.0,65.0,29.87,SSE,152,0.0,-999.0,99,-99.99,,,-99.99,,2013-06-06 16:44:00,
2013-06-06 12:53:00,65.0,65.0,29.85,SE,146,0.0,-999.0,99,-99.99,,,-99.99,,2013-06-06 16:53:00,
2013-06-06 13:03:00,65.0,65.0,29.85,SE,146,0.0,-999.0,99,-99.99,,,-99.99,,2013-06-06 17:03:00,
2013-06-06 13:13:00,65.0,65.0,29.85,SE,146,0.0,-999.0,99,-99.99,,,-99.99,,2013-06-06 17:13:00,
2013-06-06 13:23:00,65.0,65.0,29.85,SE,146,0.0,-999.0,99,-99.99,,,-99.99,,2013-06-06 17:23:00,
2013-06-06 13:33:00,66.0,66.0,29.85,SSE,168,0.0,-999.0,100,-99.99,,,-99.99,,2013-06-06 17:33:00,
2013-06-06 13:43:00,66.0,66.0,29.85,SSE,168,0.0,-999.0,100,-99.99,,,-99.99,,2013-06-06 17:43:00,
2013-06-06 13:53:00,66.0,66.0,29.85,SSE,168,0.0,-999.0,100,-99.99,,,-99.99,,2013-06-06 17:53:00,
2013-06-06 14:03:00,66.0,66.0,29.84,SSW,193,0.0,-999.0,100,-99.99,,,-99.99,,2013-06-06 18:03:00,
2013-06-06 14:13:00,66.0,66.0,29.84,SSW,193,0.0,-999.0,100,-99.99,,,-99.99,,2013-06-06 18:13:00,
2013-06-06 14:23:00,66.0,66.0,29.84,SSW,193,0.0,-999.0,100,-99.99,,,-99.99,,2013-06-06 18:23:00,
2013-06-06 14:33:00,66.0,66.0,29.84,South,181,0.0,-999.0,100,-99.99,,,-99.99,,2013-06-06 18:33:00,
2013-06-06 14:43:00,66.0,66.0,29.84,South,181,0.0,-999.0,100,-99.99,,,-99.99,,2013-06-06 18:43:00,
2013-06-06 14:53:00,66.0,66.0,29.84,South,181,0.0,-999.0,100,-99.99,,,-99.99,,2013-06-06 18:53:00,
2013-06-06 15:03:00,67.0,67.0,29.83,SSE,155,1.0,-999.0,100,-99.99,,,-99.99,,2013-06-06 19:03:00,
2013-06-06 15:13:00,67.0,67.0,29.83,SSE,155,1.0,-999.0,100,-99.99,,,-99.99,,2013-06-06 19:13:00,
2013-06-06 15:23:00,67.0,67.0,29.83,SSE,155,1.0,-999.0,100,-99.99,,,-99.99,,2013-06-06 19:23:00,
2013-06-06 15:33:00,68.0,67.0,29.82,SSE,147,0.0,-999.0,96,-99.99,,,-99.99,,2013-06-06 19:33:00,
2013-06-06 15:43:00,68.0,67.0,29.82,SSE,147,0.0,-999.0,96,-99.99,,,-99.99,,2013-06-06 19:43:00,
2013-06-06 15:53:00,70.0,67.0,29.82,SSE,158,0.0,-999.0,90,-99.99,,,-99.99,,2013-06-06 19:53:00,
2013-06-06 16:03:00,70.0,67.0,29.82,SSE,158,0.0,-999.0,90,-99.99,,,-99.99,,2013-06-06 20:03:00,
2013-06-06 16:13:00,70.0,67.0,29.82,SSE,158,0.0,-999.0,90,-99.99,,,-99.99,,2013-06-06 20:13:00,
2013-06-06 16:23:00,70.0,67.0,29.82,SSE,158,0.0,-999.0,90,-99.99,,,-99.99,,2013-06-06 20:23:00,
2013-06-06 16:33:00,71.0,66.0,29.81,SSE,155,1.0,-999.0,85,-99.99,,,-99.99,,2013-06-06 20:33:00,
2013-06-06 16:43:00,71.0,66.0,29.81,SSE,155,1.0,-999.0,85,-99.99,,,-99.99,,2013-06-06 20:43:00,
2013-06-06 16:53:00,71.0,66.0,29.81,SSE,155,1.0,-999.0,85,-99.99,,,-99.99,,2013-06-06 20:53:00,
2013-06-06 17:03:00,72.0,67.0,29.80,WNW,287,0.0,-999.0,85,-99.99,,,-99.99,,2013-06-06 21:03:00,
2013-06-06 17:13:00,72.0,67.0,29.80,WNW,287,0.0,-999.0,85,-99.99,,,-99.99,,2013-06-06 21:13:00,
2013-06-06 17:23:00,72.0,67.0,29.80,WNW,287,0.0,-999.0,85,-99.99,,,-99.99,,2013-06-06 21:23:00,
2013-06-06 17:33:00,71.0,67.0,29.79,SW,219,0.0,-999.0,87,-99.99,,,-99.99,,2013-06-06 21:33:00,
2013-06-06 17:44:00,71.0,67.0,29.79,SW,219,0.0,-999.0,87,-99.99,,,-99.99,,2013-06-06 21:44:00,
2013-06-06 17:53:00,71.0,67.0,29.79,SW,219,0.0,-999.0,87,-99.99,,,-99.99,,2013-06-06 21:53:00,
2013-06-06 18:03:00,71.0,68.0,29.79,North,359,0.0,-999.0,89,-99.99,,,-99.99,,2013-06-06 22:03:00,
2013-06-06 18:13:00,71.0,68.0,29.79,North,359,0.0,-999.0,89,-99.99,,,-99.99,,2013-06-06 22:13:00,
2013-06-06 18:23:00,71.0,68.0,29.79,North,359,0.0,-999.0,89,-99.99,,,-99.99,,2013-06-06 22:23:00,
2013-06-06 18:33:00,71.0,68.0,29.78,SW,215,0.0,-999.0,90,-99.99,,,-99.99,,2013-06-06 22:33:00,
2013-06-06 18:43:00,71.0,68.0,29.78,SW,215,0.0,-999.0,90,-99.99,,,-99.99,,2013-06-06 22:43:00,
2013-06-06 18:53:00,70.0,67.0,29.77,SW,218,0.0,-999.0,91,-99.99,,,-99.99,,2013-06-06 22:53:00,
2013-06-06 19:03:00,70.0,67.0,29.77,SW,218,0.0,-999.0,91,-99.99,,,-99.99,,2013-06-06 23:03:00,
2013-06-06 19:13:00,70.0,67.0,29.77,SW,218,0.0,-999.0,91,-99.99,,,-99.99,,2013-06-06 23:13:00,
2013-06-06 19:22:00,70.0,67.0,29.77,SW,218,0.0,-999.0,91,-99.99,,,-99.99,,2013-06-06 23:22:00,
2013-06-06 19:33:00,69.0,67.0,29.76,SSE,147,0.0,-999.0,93,-99.99,,,-99.99,,2013-06-06 23:33:00,
2013-06-06 19:43:00,69.0,67.0,29.76,SSE,147,0.0,-999.0,93,-99.99,,,-99.99,,2013-06-06 23:43:00,
2013-06-06 19:52:00,69.0,67.0,29.76,SSE,147,0.0,-999.0,93,-99.99,,,-99.99,,2013-06-06 23:52:00,
2013-06-06 20:02:00,68.0,66.0,29.76,ENE,64,0.0,-999.0,94,-99.99,,,-99.99,,2013-06-07 00:02:00,
2013-06-06 20:13:00,68.0,66.0,29.76,ENE,64,0.0,-999.0,94,-99.99,,,-99.99,,2013-06-07 00:13:00,
2013-06-06 20:22:00,68.0,66.0,29.76,ENE,64,0.0,-999.0,94,-99.99,,,-99.99,,2013-06-07 00:22:00,
2013-06-06 20:32:00,67.0,66.0,29.77,ESE,105,0.0,-999.0,96,-99.99,,,-99.99,,2013-06-07 00:32:00,
2013-06-06 20:43:00,67.0,66.0,29.77,ESE,105,0.0,-999.0,96,-99.99,,,-99.99,,2013-06-07 00:43:00,
2013-06-06 20:52:00,67.0,66.0,29.76,East,93,0.0,-999.0,96,-99.99,,,-99.99,,2013-06-07 00:52:00,
2013-06-06 21:03:00,67.0,66.0,29.76,East,93,0.0,-999.0,96,-99.99,,,-99.99,,2013-06-07 01:03:00,
2013-06-06 21:12:00,67.0,66.0,29.76,East,93,0.0,-999.0,96,-99.99,,,-99.99,,2013-06-07 01:12:00,
2013-06-06 21:22:00,67.0,66.0,29.76,East,93,0.0,-999.0,96,-99.99,,,-99.99,,2013-06-07 01:22:00,
2013-06-06 21:32:00,66.0,65.0,29.76,ESE,103,0.0,-999.0,96,-99.99,,,-99.99,,2013-06-07 01:32:00,
2013-06-06 21:42:00,66.0,65.0,29.76,ESE,103,0.0,-999.0,96,-99.99,,,-99.99,,2013-06-07 01:42:00,
2013-06-06 21:53:00,66.0,65.0,29.76,ESE,103,0.0,-999.0,96,-99.99,,,-99.99,,2013-06-07 01:53:00,
2013-06-06 22:02:00,66.0,65.0,29.76,SSE,158,1.0,-999.0,96,-99.99,,,-99.99,,2013-06-07 02:02:00,
2013-06-06 22:12:00,66.0,65.0,29.76,SSE,158,1.0,-999.0,96,-99.99,,,-99.99,,2013-06-07 02:12:00,
2013-06-06 22:22:00,66.0,65.0,29.76,SSE,158,1.0,-999.0,96,-99.99,,,-99.99,,2013-06-07 02:22:00,
2013-06-06 22:32:00,66.0,65.0,29.76,North,359,0.0,-999.0,97,-99.99,,,-99.99,,2013-06-07 02:32:00,
2013-06-06 22:42:00,66.0,65.0,29.76,North,359,0.0,-999.0,97,-99.99,,,-99.99,,2013-06-07 02:42:00,
2013-06-06 22:52:00,65.0,64.0,29.77,ESE,115,0.0,-999.0,97,-99.99,,,-99.99,,2013-06-07 02:52:00,
2013-06-06 23:02:00,65.0,64.0,29.77,ESE,115,0.0,-999.0,97,-99.99,,,-99.99,,2013-06-07 03:02:00,
2013-06-06 23:12:00,65.0,64.0,29.77,ESE,115,0.0,-999.0,97,-99.99,,,-99.99,,2013-06-07 03:12:00,
2013-06-06 23:22:00,65.0,64.0,29.77,ESE,115,0.0,-999.0,97,-99.99,,,-99.99,,2013-06-07 03:22:00,
2013-06-06 23:33:00,65.0,64.0,29.77,SE,124,0.0,-999.0,97,-99.99,,,-99.99,,2013-06-07 03:33:00,
2013-06-06 23:44:00,65.0,64.0,29.77,SE,124,0.0,-999.0,97,-99.99,,,-99.99,,2013-06-07 03:44:00,
2013-06-06 23:53:00,65.0,64.0,29.77,SE,143,0.0,-999.0,97,-99.99,,,-99.99,,2013-06-07 03:53:00,